Arlington, TX

4:40 PM CDT on August 24, 2016 (GMT -0500)
Grand Prairie Municipal

Weather History for KGPM - March, 2014

Change the Weather History Date:

Wednesday, March 12, 2014

  Actual Average (KDFW) Record (KDFW)
Temperature  
Mean Temperature 52 °F 57 °F  
Max Temperature 60 °F 67 °F 91 °F (1918)
Min Temperature 44 °F 46 °F 14 °F (1948)
Degree Days  
Heating Degree Days 13 9  
Month to date heating degree days 127  
Since 1 July heating degree days 2059  
Cooling Degree Days 0 1  
Month to date cooling degree days 10  
Year to date cooling degree days 17  
Growing Degree Days 2 (Base 50)    
Moisture  
Dew Point 26 °F    
Average Humidity 39    
Maximum Humidity 62    
Minimum Humidity 16    
Precipitation  
Precipitation 0.00 in 0.11 in 1.63 in (1943)
Month to date precipitation 1.36  
Year to date precipitation 6.15  
Snow  
Snow 0.00 in 0.00 in T in (1970)
Month to date snowfall 0.1  
Since 1 July snowfall 1.5  
Snow Depth -    
Sea Level Pressure  
Sea Level Pressure 30.15 in    
Wind  
Wind Speed 14 mph (NNW)    
Max Wind Speed 25 mph    
Max Gust Speed 34 mph    
Visibility 10 miles    
Events      
T = Trace of Precipitation, MM = Missing Value Source: NWS Daily Summary

Daily Weather History Graph

Daily Weather History Graph

Search for Another Location

Airport or City:

Trip Planner

Search our weather history database for the weather conditions in past years. The results will help you decide how hot, cold, wet, or windy it might be!

Date:

Astronomy

Mar. 12, 2014 Rise Set
Actual Time 7:42 AM CDT 7:33 PM CDT
Civil Twilight 7:17 AM CDT 7:58 PM CDT
Nautical Twilight 6:49 AM CDT 8:27 PM CDT
Astronomical Twilight 6:20 AM CDT 8:55 PM CDT
Moon 4:14 PM CDT (3/12) 5:04 AM CDT (3/12)
Length of Visible Light 12h 40m
Length of Day
11h 51m
Waxing Gibbous, 85% of the Moon is Illuminated
Mar 12
Waxing Gibbous
Mar 16
Full
Mar 23
Last Quarter
Mar 30
New
Apr 7
First Quarter

Hourly Weather History & Observations

Time (CDT) Temp. Windchill Dew Point Humidity Pressure Visibility Wind Dir Wind Speed Gust Speed Precip Events Conditions
12:15 AM 59.0 °F - 33.8 °F 39% 29.85 in 10.0 mi North 17.3 mph 26.5 mph N/A   Clear
12:35 AM 57.2 °F - 33.8 °F 41% 29.87 in 10.0 mi NNW 17.3 mph 28.8 mph N/A   Clear
12:55 AM 55.4 °F - 33.8 °F 44% 29.89 in 10.0 mi NNW 16.1 mph 29.9 mph N/A   Clear
1:15 AM 53.6 °F - 33.8 °F 47% 29.92 in 10.0 mi NNW 17.3 mph 27.6 mph N/A   Clear
1:35 AM 53.6 °F - 33.8 °F 47% 29.93 in 10.0 mi NNW 17.3 mph 26.5 mph N/A   Clear
1:55 AM 53.6 °F - 33.8 °F 47% 29.95 in 10.0 mi NNW 15.0 mph 28.8 mph N/A   Clear
2:15 AM 51.8 °F - 33.8 °F 50% 29.97 in 10.0 mi NNW 12.7 mph 28.8 mph N/A   Clear
2:35 AM 51.8 °F - 33.8 °F 50% 29.99 in 10.0 mi NNW 13.8 mph 26.5 mph N/A   Clear
2:55 AM 51.8 °F - 33.8 °F 50% 29.99 in 10.0 mi NNW 11.5 mph 24.2 mph N/A   Clear
3:15 AM 50.0 °F - 33.8 °F 54% 30.00 in 10.0 mi NNW 12.7 mph 29.9 mph N/A   Clear
3:35 AM 50.0 °F - 33.8 °F 54% 30.00 in 10.0 mi NNW 12.7 mph 23.0 mph N/A   Clear
3:55 AM 50.0 °F - 33.8 °F 54% 30.01 in 10.0 mi NNW 16.1 mph 28.8 mph N/A   Clear
4:15 AM 50.0 °F - 33.8 °F 54% 30.01 in 10.0 mi NNW 11.5 mph 27.6 mph N/A   Clear
4:35 AM 50.0 °F - 33.8 °F 54% 30.03 in 10.0 mi NNW 12.7 mph 20.7 mph N/A   Clear
4:55 AM 48.2 °F - 33.8 °F 58% 30.03 in 10.0 mi North 13.8 mph 25.3 mph N/A   Clear
5:15 AM 48.2 °F - 33.8 °F 58% 30.04 in 10.0 mi North 16.1 mph 28.8 mph N/A   Scattered Clouds
5:35 AM 48.2 °F - 33.8 °F 58% 30.05 in 10.0 mi North 17.3 mph 25.3 mph N/A   Mostly Cloudy
5:55 AM 48.2 °F - 32.0 °F 54% 30.06 in 10.0 mi NNW 18.4 mph 33.4 mph N/A   Mostly Cloudy
6:15 AM 46.4 °F 39.2 °F 33.8 °F 62% 30.08 in 10.0 mi North 18.4 mph 27.6 mph N/A   Scattered Clouds
6:35 AM 46.4 °F 40.4 °F 32.0 °F 57% 30.09 in 10.0 mi North 13.8 mph 26.5 mph N/A   Clear
6:50 AM 48.2 °F - 33.8 °F 58% 30.09 in 10.0 mi NNW 24.2 mph 31.1 mph N/A   Clear
7:50 AM 44.6 °F 37.8 °F 32.0 °F 61% 30.17 in 10.0 mi NNW 15.0 mph 25.3 mph N/A   Clear
8:50 AM 46.4 °F 39.8 °F 30.2 °F 53% 30.23 in 10.0 mi NNW 16.1 mph 26.5 mph N/A   Clear
9:50 AM 48.2 °F - 21.2 °F 34% 30.27 in 10.0 mi NNW 18.4 mph 24.2 mph N/A   Clear
10:50 AM 51.8 °F - 23.0 °F 33% 30.30 in 10.0 mi North 25.3 mph 34.5 mph N/A   Clear
11:50 AM 53.6 °F - 21.2 °F 28% 30.31 in 10.0 mi NNW 16.1 mph 29.9 mph N/A   Clear
12:50 PM 53.6 °F - 21.2 °F 28% 30.31 in 10.0 mi North 20.7 mph 32.2 mph N/A   Clear
1:50 PM 57.2 °F - 17.6 °F 21% 30.30 in 10.0 mi North 19.6 mph 25.3 mph N/A   Clear
2:50 PM 59.0 °F - 17.6 °F 20% 30.28 in 10.0 mi NNW 17.3 mph 26.5 mph N/A   Clear
3:50 PM 60.8 °F - 14.0 °F 16% 30.27 in 10.0 mi NW 11.5 mph 23.0 mph N/A   Clear
4:50 PM 60.8 °F - 14.0 °F 16% 30.24 in 10.0 mi NW 11.5 mph 19.6 mph N/A   Clear
5:50 PM 60.8 °F - 15.8 °F 17% 30.24 in 10.0 mi WNW 8.1 mph 18.4 mph N/A   Clear
6:50 PM 59.0 °F - 15.8 °F 19% 30.24 in 10.0 mi North 12.7 mph 21.9 mph N/A   Clear
8:15 PM 55.4 °F - 17.6 °F 23% 30.26 in 10.0 mi North 8.1 mph - N/A   Clear
8:35 PM 55.4 °F - 17.6 °F 23% 30.27 in 10.0 mi North 5.8 mph - N/A   Clear
8:55 PM 53.6 °F - 17.6 °F 24% 30.28 in 10.0 mi North 3.5 mph - N/A   Clear
9:15 PM 53.6 °F - 19.4 °F 26% 30.29 in 10.0 mi NNW 3.5 mph - N/A   Clear
9:35 PM 53.6 °F - 19.4 °F 26% 30.29 in 10.0 mi Calm Calm - N/A   Clear
9:55 PM 53.6 °F - 19.4 °F 26% 30.30 in 10.0 mi NW 3.5 mph - N/A   Clear
10:15 PM 53.6 °F - 19.4 °F 26% 30.30 in 10.0 mi NW 3.5 mph - N/A   Clear
10:35 PM 51.8 °F - 19.4 °F 28% 30.31 in 10.0 mi NW 3.5 mph - N/A   Clear
10:55 PM 51.8 °F - 19.4 °F 28% 30.31 in 10.0 mi Calm Calm - N/A   Clear
11:15 PM 51.8 °F - 19.4 °F 28% 30.31 in 10.0 mi Calm Calm - N/A   Clear
11:35 PM 50.0 °F - 19.4 °F 30% 30.31 in 10.0 mi Calm Calm - N/A   Clear
11:55 PM 50.0 °F - 19.4 °F 30% 30.31 in 10.0 mi NW 3.5 mph - N/A   Clear